Weather in Ogorodnikovo

Russia / Ryazan Oblast     54°20′42″N   40°11′12″E
temp.,
°C
wind,
m/s
gust,
m/s
humid.,
%
clouds,
%
prec.,
mm/h
press.,
hPa
HPBL,
m
28 february, sun
sun2800:00−10n2396100 0.1 101334
03:00−10nnw239799 0.1 101433
06:00−11nw359699 0.1 1015116
09:00−9nnw359488 0.2 1015262
12:00−7nnw349186 0.0 1015397
15:00−5nnw359193 0.1 1016468
18:00−5nnw2595100 0.1 1017181
21:00−6nne2695100 0.1 1019218
1 march, mon
mon100:00−6nne1294100 0.1 102123
03:00−7n129699 0.1 102321
06:00−10nnw1297100 0.0 102321
09:00−8wsw129694 0.1 102540
12:00−4wsw349436 0.0 1024267
15:00−2wsw479352 0.0 1023480
18:00−1wsw5109291 0.0 1021512
21:00−1wsw6129395 0.1 1018582
2 march, tue
tue200:000wsw71393100 0.2 1015607
03:00+1w71392100 0.2 1012676
06:00+1w71398100 0.1 1008658
09:00+1wnw81498100 0.4 1007706
12:00+1nw71298100 0.2 1008877
15:00+1nw6129195 0.3 1008901
18:00−1nw6148897 0.1 1008578
21:00−2nw6139198 0.2 1009498
3 march, wed
wed300:00−3nw6129494 0.3 1010436
03:00−4nw6139196 0.3 1011562
06:00−4nw6139199 0.1 1012691
09:00−4nnw81287100 0.1 1014865
12:00−2nw71283100 0.0 10151093
15:00−1nw71184100 0.3 10161240
18:00−4nw5128737 0.1 1017322
21:00−5wnw488940 0.1 1019153
4 march, thu
thu400:00−3wnw498993 0.0 1019307
03:00−5wsw469282 0.0 1018105
06:00−7sw59949 0.0 1016192
09:00−4wsw6139132 0.0 1014387
12:00−1wsw7138690 0.0 1012621
15:000sw8148695 0.0 1010694
18:00−1sw8168518 0.0 1007634
21:00−1wsw716869 0.0 1006557